Retour au catalogue

TITAN 3C TRANSTAGE DEB

LostHEO
NORAD 27865·DEBRIS·🇺🇸 United States

Lancé Dec 21, 1965 depuis Cape Canaveral Space Force Station

Loading…

Prochains Passages (prochaines 24 heures)

TLE

PériméSource: Space-Track

Époque: Aug 14, 2025, 04:42 UTC

1 27865U 65108BL  25226.19614346  .00000060  00000-0  73889-2 0  9992
2 27865  26.8929 285.2281 6729487 233.3292  88.9066  2.60314498221370

Suivez TITAN 3C TRANSTAGE DEB en temps réel avec AllMySat

Download on the App Store